| time (UTC) | temp F | wind direction | speed knots | gust knots | rain 1hr in | rain 24hr in | rain mn in | humidity % | barometer mb |
| 20260510103842 | 49 | 349 | 0.0 | 1.7 | 0.00 | 0.35 | 0.00 | 97 | 975.3 |
| 20260510103341 | 49 | 317 | 0.0 | 2.6 | 0.00 | 0.35 | 0.00 | 97 | 975.3 |
| 20260510102841 | 49 | 336 | 0.0 | 2.6 | 0.00 | 0.35 | 0.00 | 97 | 975.0 |
| 20260510102341 | 49 | 240 | 0.0 | 1.7 | 0.00 | 0.35 | 0.00 | 97 | 974.6 |
| 20260510101840 | 49 | 117 | 0.0 | 1.7 | 0.00 | 0.35 | 0.00 | 97 | 975.0 |
| 20260510101340 | 49 | 22 | 0.0 | 1.7 | 0.00 | 0.35 | 0.00 | 97 | 975.0 |
| 20260510100840 | 49 | 224 | 0.0 | 1.7 | 0.00 | 0.35 | 0.00 | 97 | 975.0 |
| 20260510100339 | 49 | 323 | 0.0 | 1.7 | 0.00 | 0.35 | 0.00 | 97 | 974.6 |
| 20260510095839 | 49 | 144 | 0.9 | 1.7 | 0.00 | 0.35 | 0.00 | 97 | 974.6 |
| 20260510095339 | 50 | 301 | 0.0 | 1.7 | 0.00 | 0.35 | 0.00 | 97 | 974.6 |
| 20260510094839 | 50 | 195 | 0.9 | 1.7 | 0.00 | 0.35 | 0.00 | 97 | 974.6 |
| 20260510094338 | 50 | 284 | 0.9 | 2.6 | 0.00 | 0.35 | 0.00 | 97 | 974.3 |
| 20260510093842 | 50 | 344 | 1.7 | 2.6 | 0.00 | 0.35 | 0.00 | 97 | 974.3 |
| 20260510093337 | 51 | 345 | 1.7 | 2.6 | 0.00 | 0.36 | 0.00 | 98 | 974.3 |
| 20260510092330 | 51 | 241 | 0.9 | 2.6 | 0.00 | 0.36 | 0.00 | 98 | 973.9 |
| 20260510091830 | 51 | 271 | 0.0 | 2.6 | 0.00 | 0.36 | 0.00 | 98 | 973.9 |
| 20260510091330 | 51 | 47 | 0.9 | 2.6 | 0.00 | 0.36 | 0.00 | 98 | 973.9 |
| 20260510090830 | 51 | 59 | 0.0 | 2.6 | 0.00 | 0.37 | 0.00 | 98 | 973.9 |
| 20260510085831 | 52 | 93 | 1.7 | 2.6 | 0.00 | 0.37 | 0.00 | 98 | 973.9 |
| 20260510085330 | 52 | 147 | 0.9 | 2.6 | 0.00 | 0.37 | 0.00 | 98 | 973.6 |
| 20260510084830 | 52 | 17 | 0.9 | 1.7 | 0.00 | 0.38 | 0.00 | 97 | 973.3 |
| 20260510084329 | 52 | 22 | 0.0 | 1.7 | 0.00 | 0.38 | 0.00 | 97 | 973.3 |
| 20260510083829 | 52 | 41 | 0.0 | 1.7 | 0.00 | 0.39 | 0.00 | 97 | 973.3 |
| 20260510083329 | 52 | 306 | 1.7 | 1.7 | 0.00 | 0.40 | 0.00 | 97 | 973.3 |
| 20260510082833 | 52 | 285 | 0.0 | 1.7 | 0.00 | 0.40 | 0.00 | 97 | 972.9 |
| 20260510082333 | 52 | 259 | 1.7 | 1.7 | 0.00 | 0.41 | 0.00 | 97 | 973.3 |
| 20260510081833 | 52 | 234 | 0.9 | 2.6 | 0.00 | 0.41 | 0.00 | 97 | 973.3 |
| 20260510080833 | 51 | 156 | 0.0 | 1.7 | 0.00 | 0.45 | 0.00 | 97 | 972.9 |
| 20260510080333 | 51 | 170 | 0.0 | 1.7 | 0.00 | 0.46 | 0.00 | 97 | 972.9 |
| 20260510075833 | 51 | 279 | 0.9 | 1.7 | 0.00 | 0.46 | 0.00 | 97 | 972.6 |
| 20260510075332 | 51 | 76 | 0.0 | 1.7 | 0.00 | 0.46 | 0.00 | 97 | 972.9 |
| 20260510074832 | 51 | 288 | 0.0 | 1.7 | 0.00 | 0.46 | 0.00 | 97 | 972.6 |
| 20260510074335 | 52 | 199 | 0.0 | 1.7 | 0.00 | 0.47 | 0.00 | 97 | 972.6 |
| 20260510073832 | 51 | 81 | 0.0 | 1.7 | 0.00 | 0.47 | 0.00 | 97 | 972.6 |
| 20260510073331 | 52 | 150 | 0.9 | 1.7 | 0.00 | 0.48 | 0.00 | 97 | 972.6 |
| 20260510072831 | 52 | 133 | 0.0 | 1.7 | 0.00 | 0.48 | 0.00 | 97 | 972.6 |
| 20260510072331 | 52 | 7 | 1.7 | 1.7 | 0.00 | 0.48 | 0.00 | 97 | 972.3 |
| 20260510071831 | 52 | 36 | 1.7 | 1.7 | 0.00 | 0.48 | 0.00 | 97 | 972.6 |
| 20260510071330 | 52 | 26 | 0.0 | 1.7 | 0.00 | 0.48 | 0.00 | 97 | 972.6 |
| 20260510070831 | 52 | 34 | 0.0 | 1.7 | 0.00 | 0.48 | 0.00 | 96 | 972.3 |
| 20260510070330 | 52 | 358 | 0.9 | 2.6 | 0.00 | 0.48 | 0.00 | 97 | 972.3 |
| 20260510065830 | 52 | 350 | 1.7 | 2.6 | 0.00 | 0.48 | 0.00 | 97 | 972.3 |
| 20260510065329 | 52 | 276 | 0.9 | 1.7 | 0.00 | 0.48 | 0.00 | 96 | 972.3 |
| 20260510064829 | 52 | 355 | 0.0 | 1.7 | 0.00 | 0.48 | 0.00 | 96 | 972.3 |
| 20260510064328 | 52 | 235 | 0.9 | 1.7 | 0.00 | 0.50 | 0.00 | 97 | 972.3 |
| 20260510063829 | 52 | 235 | 0.0 | 1.7 | 0.00 | 0.51 | 0.00 | 97 | 972.3 |
| 20260510063329 | 53 | 0 | 0.0 | 1.7 | 0.00 | 0.51 | 0.00 | 97 | 972.3 |
| 20260510062828 | 53 | 350 | 1.7 | 3.5 | 0.00 | 0.51 | 0.00 | 97 | 972.3 |
| 20260510062328 | 53 | 51 | 0.9 | 3.5 | 0.00 | 0.51 | 0.00 | 97 | 971.9 |
| 20260510061327 | 53 | 123 | 0.0 | 2.6 | 0.00 | 0.52 | 0.00 | 97 | 971.9 |
| 20260510060828 | 53 | 17 | 1.7 | 2.6 | 0.00 | 0.52 | 0.00 | 97 | 971.9 |
| 20260510060327 | 53 | 351 | 0.0 | 2.6 | 0.00 | 0.53 | 0.00 | 97 | 971.9 |
| 20260510055827 | 53 | 277 | 0.9 | 2.6 | 0.00 | 0.54 | 0.00 | 97 | 971.6 |
| 20260510054826 | 53 | 76 | 0.9 | 1.7 | 0.00 | 0.57 | 0.00 | 97 | 971.6 |
| 20260510054326 | 53 | 140 | 0.0 | 1.7 | 0.00 | 0.59 | 0.00 | 97 | 971.9 |
| 20260510053825 | 54 | 121 | 0.0 | 2.6 | 0.00 | 0.60 | 0.00 | 97 | 971.9 |
| 20260510052825 | 54 | 107 | 0.0 | 2.6 | 0.00 | 0.62 | 0.00 | 97 | 971.9 |
| 20260510052325 | 54 | 87 | 0.0 | 3.5 | 0.00 | 0.63 | 0.00 | 96 | 972.3 |
| 20260510050824 | 53 | 199 | 0.0 | 1.7 | 0.00 | 0.63 | 0.00 | 96 | 972.3 |
| 20260510050324 | 53 | 287 | 0.0 | 1.7 | 0.00 | 0.63 | 0.00 | 96 | 971.9 |
| 20260510045323 | 53 | 212 | 0.0 | 2.6 | 0.01 | 0.63 | 0.00 | 97 | 971.6 |
| 20260510044323 | 53 | 197 | 0.9 | 1.7 | 0.01 | 0.64 | 0.00 | 96 | 971.6 |
| 20260510043822 | 54 | 54 | 0.0 | 1.7 | 0.01 | 0.64 | 0.00 | 96 | 971.6 |
| 20260510043322 | 54 | 13 | 0.0 | 1.7 | 0.01 | 0.65 | 0.00 | 96 | 971.6 |
| 20260510042822 | 54 | 50 | 0.9 | 1.7 | 0.02 | 0.65 | 0.00 | 96 | 971.6 |
| 20260510042321 | 54 | 224 | 0.0 | 1.7 | 0.02 | 0.66 | 0.00 | 96 | 971.6 |
| 20260510041821 | 54 | 346 | 0.9 | 1.7 | 0.02 | 0.66 | 0.00 | 96 | 971.6 |
| 20260510041321 | 55 | 25 | 0.0 | 1.7 | 0.02 | 0.67 | 0.00 | 96 | 971.6 |
| 20260510040821 | 55 | 209 | 0.0 | 1.7 | 0.02 | 0.67 | 0.00 | 96 | 971.6 |
| 20260510040320 | 55 | 341 | 0.0 | 0.9 | 0.02 | 0.68 | 0.00 | 96 | 971.6 |
| 20260510035820 | 55 | 99 | 0.0 | 0.9 | 0.03 | 0.68 | 0.68 | 96 | 971.6 |
| 20260510035320 | 55 | 67 | 0.0 | 1.7 | 0.03 | 0.68 | 0.67 | 96 | 971.6 |
| 20260510034819 | 55 | 89 | 0.0 | 3.5 | 0.13 | 0.68 | 0.67 | 96 | 971.6 |
| 20260510034320 | 55 | 28 | 0.0 | 3.5 | 0.19 | 0.68 | 0.67 | 96 | 971.9 |
| 20260510033822 | 55 | 76 | 0.0 | 3.5 | 0.19 | 0.69 | 0.67 | 95 | 971.2 |
| 20260510032819 | 55 | 58 | 0.0 | 2.6 | 0.18 | 0.68 | 0.66 | 95 | 971.6 |
| 20260510032318 | 55 | 50 | 0.0 | 2.6 | 0.18 | 0.68 | 0.66 | 95 | 971.6 |
| 20260510031818 | 55 | 69 | 1.7 | 2.6 | 0.18 | 0.68 | 0.66 | 95 | 971.6 |
| 20260510031318 | 55 | 125 | 0.9 | 1.7 | 0.21 | 0.69 | 0.66 | 95 | 971.6 |
| 20260510030317 | 55 | 29 | 0.0 | 7.8 | 0.21 | 0.70 | 0.66 | 94 | 972.3 |
| 20260510025316 | 55 | 282 | 8.7 | 9.6 | 0.18 | 0.67 | 0.62 | 95 | 972.6 |
| 20260510024817 | 55 | 299 | 3.5 | 5.2 | 0.08 | 0.57 | 0.52 | 95 | 972.6 |
| 20260510024317 | 55 | 274 | 1.7 | 3.5 | 0.03 | 0.53 | 0.48 | 95 | 971.6 |
| 20260510023816 | 55 | 309 | 0.0 | 1.7 | 0.03 | 0.54 | 0.48 | 95 | 971.2 |
| 20260510022815 | 55 | 44 | 0.0 | 1.7 | 0.03 | 0.54 | 0.48 | 95 | 970.9 |
| 20260510022315 | 55 | 282 | 0.0 | 2.6 | 0.03 | 0.54 | 0.48 | 94 | 970.9 |
| 20260510021815 | 55 | 76 | 1.7 | 3.5 | 0.02 | 0.53 | 0.47 | 94 | 970.9 |
| 20260510021314 | 55 | 253 | 2.6 | 3.5 | 0.00 | 0.51 | 0.45 | 94 | 971.2 |
| 20260510020814 | 55 | 333 | 0.0 | 1.7 | 0.00 | 0.51 | 0.45 | 94 | 970.9 |
| 20260510020314 | 55 | 329 | 0.0 | 1.7 | 0.00 | 0.52 | 0.45 | 94 | 971.2 |
| 20260510015814 | 55 | 309 | 0.0 | 0.9 | 0.00 | 0.52 | 0.45 | 94 | 971.2 |
| 20260510015313 | 55 | 315 | 0.0 | 1.7 | 0.00 | 0.52 | 0.45 | 94 | 971.2 |
| 20260510014813 | 55 | 105 | 0.0 | 1.7 | 0.01 | 0.52 | 0.45 | 94 | 970.9 |
| 20260510013816 | 55 | 243 | 0.0 | 2.6 | 0.02 | 0.52 | 0.45 | 94 | 970.9 |
| 20260510012812 | 55 | 185 | 0.0 | 1.7 | 0.05 | 0.52 | 0.45 | 94 | 970.9 |
| 20260510011812 | 56 | 267 | 0.9 | 2.6 | 0.09 | 0.52 | 0.45 | 94 | 970.9 |
| 20260510011311 | 55 | 245 | 0.9 | 1.7 | 0.11 | 0.52 | 0.45 | 93 | 970.2 |
| 20260510010811 | 55 | 89 | 0.9 | 1.7 | 0.11 | 0.52 | 0.45 | 93 | 970.6 |
| 20260510005810 | 55 | 275 | 0.0 | 0.9 | 0.12 | 0.53 | 0.45 | 93 | 971.2 |
| 20260510005310 | 55 | 23 | 0.0 | 1.7 | 0.12 | 0.53 | 0.45 | 93 | 970.9 |
| 20260510004809 | 55 | 129 | 0.0 | 2.6 | 0.11 | 0.52 | 0.44 | 93 | 970.9 |
| 20260510003308 | 55 | 2 | 2.6 | 7.0 | 0.10 | 0.52 | 0.43 | 91 | 970.9 |
| 20260510002807 | 56 | 95 | 0.9 | 7.0 | 0.07 | 0.49 | 0.40 | 90 | 970.9 |
| 20260510001802 | 58 | 348 | 7.0 | 11.3 | 0.02 | 0.45 | 0.35 | 81 | 970.6 |
| 20260510001302 | 62 | 321 | 6.1 | 11.3 | 0.01 | 0.44 | 0.34 | 69 | 970.9 |
| 20260510000802 | 66 | 351 | 5.2 | 11.3 | 0.01 | 0.44 | 0.34 | 59 | 969.9 |
| 20260510000304 | 66 | 320 | 6.1 | 11.3 | 0.00 | 0.44 | 0.33 | 56 | 968.9 |
| 20260509235307 | 67 | 271 | 1.7 | 5.2 | 0.00 | 0.44 | 0.33 | 54 | 968.9 |
| 20260509234305 | 67 | 324 | 0.9 | 6.1 | 0.00 | 0.44 | 0.33 | 53 | 968.9 |
| 20260509233806 | 68 | 253 | 0.9 | 5.2 | 0.00 | 0.44 | 0.33 | 53 | 968.9 |
| 20260509233305 | 67 | 347 | 3.5 | 6.1 | 0.00 | 0.44 | 0.33 | 52 | 968.9 |
| 20260509232309 | 68 | 268 | 3.5 | 12.2 | 0.00 | 0.44 | 0.33 | 52 | 968.5 |
| 20260509231805 | 68 | 194 | 5.2 | 12.2 | 0.00 | 0.44 | 0.33 | 52 | 967.9 |
| 20260509231305 | 68 | 256 | 4.3 | 16.5 | 0.00 | 0.44 | 0.33 | 50 | 968.2 |
| 20260509230804 | 69 | 164 | 0.9 | 16.5 | 0.00 | 0.44 | 0.33 | 50 | 968.2 |
| 20260509230305 | 69 | 235 | 7.0 | 8.7 | 0.00 | 0.44 | 0.33 | 50 | 968.2 |
| 20260509225804 | 69 | 173 | 2.6 | 12.2 | 0.00 | 0.44 | 0.33 | 50 | 968.2 |
| 20260509225306 | 69 | 220 | 5.2 | 12.2 | 0.00 | 0.44 | 0.33 | 50 | 968.2 |
| 20260509224804 | 69 | 201 | 8.7 | 11.3 | 0.00 | 0.44 | 0.33 | 50 | 968.2 |
| 20260509224304 | 69 | 176 | 0.9 | 11.3 | 0.00 | 0.44 | 0.33 | 50 | 967.9 |
| 20260509223803 | 69 | 192 | 1.7 | 9.6 | 0.00 | 0.44 | 0.33 | 51 | 968.2 |
| 20260509223303 | 69 | 221 | 3.5 | 9.6 | 0.00 | 0.44 | 0.33 | 51 | 968.2 |
| 20260509222306 | 69 | 311 | 5.2 | 9.6 | 0.00 | 0.44 | 0.33 | 51 | 968.5 |
| 20260509221802 | 69 | 228 | 2.6 | 7.8 | 0.00 | 0.44 | 0.33 | 50 | 968.5 |
| 20260509221302 | 69 | 295 | 1.7 | 7.8 | 0.00 | 0.44 | 0.33 | 51 | 968.2 |
| 20260509220802 | 70 | 358 | 2.6 | 7.8 | 0.00 | 0.44 | 0.33 | 50 | 968.5 |
| 20260509215801 | 70 | 211 | 3.5 | 7.0 | 0.00 | 0.44 | 0.33 | 48 | 968.2 |
| 20260509215300 | 70 | 32 | 2.6 | 10.4 | 0.00 | 0.44 | 0.33 | 49 | 968.2 |
| 20260509214801 | 69 | 205 | 7.8 | 10.4 | 0.00 | 0.44 | 0.33 | 50 | 968.2 |
| 20260509214300 | 69 | 156 | 1.7 | 10.4 | 0.00 | 0.44 | 0.33 | 49 | 968.5 |
| 20260509213759 | 69 | 226 | 6.1 | 8.7 | 0.00 | 0.44 | 0.33 | 50 | 968.2 |
| 20260509213300 | 69 | 99 | 1.7 | 12.2 | 0.00 | 0.44 | 0.33 | 50 | 968.2 |
| 20260509211802 | 68 | 216 | 3.5 | 15.6 | 0.00 | 0.44 | 0.33 | 49 | 968.9 |
| 20260509211259 | 68 | 332 | 1.7 | 7.0 | 0.00 | 0.44 | 0.33 | 51 | 968.9 |
| 20260509210759 | 68 | 273 | 2.6 | 11.3 | 0.00 | 0.44 | 0.33 | 50 | 968.9 |
| 20260509210258 | 69 | 315 | 7.8 | 11.3 | 0.00 | 0.44 | 0.33 | 49 | 968.9 |
| 20260509205757 | 68 | 313 | 4.3 | 11.3 | 0.00 | 0.44 | 0.33 | 49 | 968.9 |
| 20260509205258 | 68 | 239 | 1.7 | 9.6 | 0.00 | 0.44 | 0.33 | 48 | 968.9 |
| 20260509204757 | 68 | 213 | 3.5 | 10.4 | 0.00 | 0.44 | 0.33 | 49 | 968.9 |
| 20260509203757 | 69 | 160 | 3.5 | 11.3 | 0.00 | 0.44 | 0.33 | 50 | 969.2 |
| 20260509203256 | 68 | 245 | 2.6 | 11.3 | 0.00 | 0.44 | 0.33 | 51 | 968.9 |
| 20260509202756 | 67 | 207 | 1.7 | 11.3 | 0.00 | 0.44 | 0.33 | 52 | 969.2 |
| 20260509202256 | 67 | 313 | 2.6 | 10.4 | 0.00 | 0.44 | 0.33 | 51 | 969.2 |
| 20260509201755 | 68 | 203 | 5.2 | 8.7 | 0.00 | 0.44 | 0.33 | 50 | 969.2 |
| 20260509201256 | 68 | 315 | 4.3 | 8.7 | 0.00 | 0.45 | 0.33 | 50 | 969.2 |
| 20260509200754 | 68 | 314 | 6.1 | 9.6 | 0.00 | 0.46 | 0.33 | 52 | 969.2 |
| 20260509200254 | 67 | 234 | 5.2 | 15.6 | 0.00 | 0.46 | 0.33 | 50 | 969.5 |
| 20260509195754 | 67 | 299 | 5.2 | 15.6 | 0.00 | 0.46 | 0.33 | 53 | 969.9 |
| 20260509195254 | 67 | 232 | 2.6 | 10.4 | 0.00 | 0.46 | 0.33 | 53 | 969.5 |
| 20260509194754 | 67 | 247 | 0.0 | 10.4 | 0.00 | 0.46 | 0.33 | 52 | 969.9 |
| 20260509194254 | 67 | 60 | 3.5 | 9.6 | 0.00 | 0.47 | 0.33 | 54 | 969.9 |
| 20260509193753 | 66 | 210 | 5.2 | 9.6 | 0.00 | 0.47 | 0.33 | 55 | 969.9 |
| 20260509193254 | 67 | 0 | 1.7 | 8.7 | 0.00 | 0.47 | 0.33 | 55 | 969.9 |
| 20260509192253 | 66 | 188 | 5.2 | 9.6 | 0.00 | 0.47 | 0.33 | 56 | 969.9 |
| 20260509191755 | 67 | 281 | 3.5 | 9.6 | 0.00 | 0.47 | 0.33 | 56 | 969.9 |
| 20260509191252 | 67 | 92 | 1.7 | 11.3 | 0.00 | 0.47 | 0.33 | 56 | 970.2 |
| 20260509190752 | 66 | 192 | 4.3 | 11.3 | 0.00 | 0.47 | 0.33 | 57 | 970.2 |
| 20260509190252 | 67 | 180 | 1.7 | 7.8 | 0.00 | 0.47 | 0.33 | 60 | 970.2 |
| 20260509185751 | 66 | 229 | 3.5 | 10.4 | 0.00 | 0.47 | 0.33 | 59 | 969.9 |
| 20260509185251 | 65 | 186 | 2.6 | 10.4 | 0.00 | 0.48 | 0.33 | 61 | 970.2 |
| 20260509184751 | 65 | 182 | 2.6 | 8.7 | 0.00 | 0.48 | 0.33 | 62 | 970.2 |
| 20260509184251 | 65 | 193 | 2.6 | 9.6 | 0.00 | 0.48 | 0.33 | 60 | 970.2 |
| 20260509183751 | 64 | 195 | 7.0 | 13.9 | 0.00 | 0.48 | 0.33 | 63 | 970.6 |
| 20260509183250 | 65 | 307 | 3.5 | 13.9 | 0.00 | 0.49 | 0.33 | 59 | 970.2 |
| 20260509182750 | 66 | 204 | 1.7 | 10.4 | 0.00 | 0.49 | 0.33 | 61 | 970.2 |
| 20260509182250 | 65 | 199 | 2.6 | 10.4 | 0.00 | 0.50 | 0.33 | 62 | 970.2 |
| 20260509181750 | 65 | 228 | 4.3 | 12.2 | 0.00 | 0.50 | 0.33 | 63 | 970.2 |
| 20260509181249 | 65 | 212 | 10.4 | 12.2 | 0.00 | 0.52 | 0.33 | 61 | 970.2 |
| 20260509180748 | 64 | 276 | 2.6 | 11.3 | 0.00 | 0.53 | 0.33 | 60 | 970.6 |
| 20260509174747 | 64 | 306 | 2.6 | 9.6 | 0.00 | 0.55 | 0.33 | 62 | 970.2 |
| 20260509174247 | 62 | 310 | 2.6 | 11.3 | 0.00 | 0.55 | 0.33 | 65 | 970.6 |
| 20260509173747 | 62 | 305 | 2.6 | 11.3 | 0.00 | 0.56 | 0.33 | 62 | 970.2 |
| 20260509173247 | 63 | 278 | 1.7 | 8.7 | 0.00 | 0.56 | 0.33 | 66 | 970.2 |
| 20260509172746 | 62 | 264 | 1.7 | 8.7 | 0.00 | 0.56 | 0.33 | 65 | 970.2 |
| 20260509172249 | 64 | 159 | 0.0 | 7.8 | 0.00 | 0.57 | 0.33 | 65 | 970.6 |
| 20260509171746 | 60 | 172 | 0.9 | 7.8 | 0.00 | 0.57 | 0.33 | 70 | 970.6 |
| 20260509171245 | 61 | 280 | 3.5 | 7.8 | 0.00 | 0.57 | 0.33 | 69 | 970.6 |
| 20260509170745 | 61 | 34 | 3.5 | 9.6 | 0.00 | 0.57 | 0.33 | 67 | 970.6 |
| 20260509170245 | 63 | 322 | 5.2 | 9.6 | 0.00 | 0.57 | 0.33 | 67 | 970.9 |
| 20260509165745 | 62 | 196 | 6.1 | 10.4 | 0.00 | 0.57 | 0.33 | 67 | 970.9 |
| 20260509165244 | 62 | 334 | 8.7 | 10.4 | 0.00 | 0.57 | 0.33 | 68 | 970.6 |
| 20260509164744 | 62 | 317 | 7.0 | 7.8 | 0.00 | 0.57 | 0.33 | 69 | 970.6 |
| 20260509164244 | 61 | 213 | 5.2 | 7.8 | 0.00 | 0.57 | 0.33 | 72 | 970.6 |
| 20260509163745 | 60 | 311 | 0.9 | 7.8 | 0.00 | 0.57 | 0.33 | 75 | 970.6 |
| 20260509163244 | 59 | 287 | 0.9 | 7.8 | 0.00 | 0.57 | 0.33 | 75 | 970.6 |
| 20260509162743 | 60 | 224 | 0.0 | 5.2 | 0.00 | 0.57 | 0.33 | 77 | 970.9 |
| 20260509161743 | 58 | 237 | 1.7 | 8.7 | 0.00 | 0.57 | 0.33 | 82 | 970.6 |
| 20260509160742 | 58 | 278 | 1.7 | 9.6 | 0.00 | 0.57 | 0.33 | 79 | 970.9 |
| 20260509155741 | 58 | 227 | 5.2 | 6.1 | 0.00 | 0.57 | 0.33 | 81 | 970.6 |
| 20260509155241 | 57 | 215 | 3.5 | 5.2 | 0.00 | 0.57 | 0.33 | 84 | 970.9 |
| 20260509154741 | 56 | 227 | 2.6 | 5.2 | 0.00 | 0.57 | 0.33 | 84 | 970.9 |
| 20260509154241 | 56 | 335 | 2.6 | 6.1 | 0.00 | 0.57 | 0.33 | 84 | 970.9 |
| 20260509153740 | 56 | 295 | 0.9 | 6.1 | 0.00 | 0.57 | 0.33 | 84 | 970.9 |
| 20260509153240 | 57 | 323 | 0.0 | 4.3 | 0.00 | 0.57 | 0.33 | 86 | 970.9 |
| 20260509152243 | 56 | 312 | 0.0 | 7.8 | 0.00 | 0.57 | 0.33 | 86 | 970.6 |
| 20260509151739 | 56 | 302 | 3.5 | 7.0 | 0.00 | 0.57 | 0.33 | 86 | 970.6 |
| 20260509151239 | 56 | 229 | 2.6 | 5.2 | 0.00 | 0.57 | 0.33 | 86 | 970.6 |
| 20260509150739 | 56 | 258 | 0.9 | 6.1 | 0.00 | 0.57 | 0.33 | 87 | 970.6 |
| 20260509150239 | 56 | 297 | 0.0 | 6.1 | 0.00 | 0.57 | 0.33 | 87 | 970.6 |
| 20260509145739 | 55 | 314 | 0.0 | 4.3 | 0.00 | 0.57 | 0.33 | 88 | 970.2 |
| 20260509145238 | 55 | 260 | 0.9 | 3.5 | 0.00 | 0.57 | 0.33 | 89 | 970.6 |
| 20260509144736 | 55 | 298 | 0.9 | 6.1 | 0.00 | 0.57 | 0.33 | 88 | 970.6 |
| 20260509143736 | 55 | 305 | 1.7 | 5.2 | 0.00 | 0.57 | 0.33 | 89 | 970.6 |
| 20260509143236 | 55 | 296 | 1.7 | 5.2 | 0.00 | 0.57 | 0.33 | 89 | 970.6 |
| 20260509142736 | 55 | 284 | 2.6 | 4.3 | 0.00 | 0.57 | 0.33 | 90 | 970.6 |
| 20260509142235 | 55 | 278 | 1.7 | 5.2 | 0.00 | 0.57 | 0.33 | 91 | 970.6 |
| 20260509141730 | 55 | 241 | 2.6 | 7.8 | 0.00 | 0.57 | 0.33 | 91 | 970.6 |
| 20260509141230 | 55 | 310 | 2.6 | 7.8 | 0.00 | 0.57 | 0.33 | 91 | 970.2 |
| 20260509140731 | 54 | 74 | 0.9 | 7.0 | 0.00 | 0.57 | 0.33 | 92 | 970.6 |
| 20260509140230 | 54 | 205 | 4.3 | 5.2 | 0.00 | 0.57 | 0.33 | 94 | 970.2 |
| 20260509135230 | 54 | 10 | 2.6 | 5.2 | 0.00 | 0.57 | 0.33 | 95 | 970.6 |
| 20260509134734 | 53 | 212 | 1.7 | 7.0 | 0.00 | 0.57 | 0.33 | 96 | 970.6 |
| 20260509134234 | 53 | 135 | 0.0 | 7.0 | 0.00 | 0.57 | 0.33 | 96 | 970.6 |
| 20260509133234 | 52 | 248 | 1.7 | 5.2 | 0.00 | 0.57 | 0.33 | 96 | 970.6 |
| 20260509132736 | 52 | 211 | 0.9 | 4.3 | 0.00 | 0.57 | 0.33 | 96 | 970.9 |
| 20260509131733 | 52 | 302 | 0.0 | 3.5 | 0.00 | 0.57 | 0.33 | 96 | 970.9 |
| 20260509131233 | 52 | 343 | 0.0 | 3.5 | 0.00 | 0.57 | 0.33 | 96 | 970.9 |
| 20260509130733 | 52 | 179 | 1.7 | 8.7 | 0.00 | 0.57 | 0.33 | 96 | 970.9 |
| 20260509125732 | 52 | 216 | 3.5 | 6.1 | 0.00 | 0.57 | 0.33 | 96 | 970.9 |
| 20260509125232 | 52 | 219 | 0.0 | 4.3 | 0.00 | 0.57 | 0.33 | 96 | 970.9 |
| 20260509124732 | 52 | 197 | 1.7 | 5.2 | 0.00 | 0.57 | 0.33 | 96 | 970.9 |
| 20260509124231 | 52 | 291 | 0.9 | 5.2 | 0.00 | 0.57 | 0.33 | 96 | 970.9 |
| 20260509123731 | 52 | 335 | 1.7 | 5.2 | 0.00 | 0.57 | 0.33 | 96 | 970.9 |
| 20260509122730 | 52 | 97 | 0.0 | 4.3 | 0.00 | 0.57 | 0.33 | 96 | 970.9 |
| 20260509122230 | 52 | 170 | 0.0 | 4.3 | 0.00 | 0.57 | 0.33 | 96 | 970.6 |
| 20260509121729 | 52 | 203 | 0.9 | 4.3 | 0.00 | 0.57 | 0.33 | 96 | 970.6 |
| 20260509121230 | 52 | 233 | 1.7 | 4.3 | 0.00 | 0.57 | 0.33 | 96 | 970.9 |
| 20260509120730 | 52 | 7 | 1.7 | 4.3 | 0.00 | 0.57 | 0.33 | 96 | 970.9 |
| 20260509120229 | 52 | 313 | 0.0 | 4.3 | 0.00 | 0.57 | 0.33 | 96 | 970.9 |
| 20260509115729 | 52 | 203 | 0.9 | 4.3 | 0.00 | 0.57 | 0.33 | 96 | 970.9 |
| 20260509114228 | 51 | 215 | 2.6 | 3.5 | 0.00 | 0.57 | 0.33 | 96 | 970.9 |
| 20260509113728 | 51 | 49 | 0.9 | 2.6 | 0.00 | 0.57 | 0.33 | 96 | 970.9 |
| 20260509113231 | 51 | 34 | 0.0 | 3.5 | 0.00 | 0.57 | 0.33 | 96 | 970.9 |
| 20260509112728 | 51 | 70 | 0.0 | 4.3 | 0.00 | 0.57 | 0.33 | 96 | 970.6 |
| 20260509111727 | 51 | 192 | 1.7 | 4.3 | 0.00 | 0.57 | 0.33 | 96 | 970.6 |
| 20260509111227 | 51 | 175 | 2.6 | 4.3 | 0.00 | 0.57 | 0.33 | 96 | 970.9 |
| 20260509110226 | 51 | 354 | 0.0 | 3.5 | 0.00 | 0.57 | 0.33 | 96 | 970.6 |
| 20260509105726 | 51 | 333 | 0.0 | 3.5 | 0.00 | 0.57 | 0.33 | 96 | 970.6 |
| 20260509105225 | 51 | 217 | 0.0 | 4.3 | 0.00 | 0.57 | 0.33 | 96 | 970.6 |